Location: Alafon
(8.4500°N, 4.2333°E)
Time: 04:37:35
(UTC+00:00)

Altair - All Passes

Search period start: 26 July 2021 00:00
Search period end: 05 August 2021 00:00
Orbit: 1501 x 1682 km, 47.2° (Epoch: 25 July)

Date Brightness Start Highest point End Pass type
(mag) Time Alt. Az. Time Alt. Az. Time Alt. Az.
26 Jul - 00:10:15 10° SW 00:20:01 78° SE 00:29:23 10° NE visible
26 Jul - 02:17:52 10° W 02:24:56 23° NW 02:31:52 10° N visible
26 Jul - 08:50:02 10° N 08:54:14 14° NE 08:58:28 10° ENE daylight
26 Jul - 10:50:27 10° NNW 10:59:45 69° NE 11:09:24 10° SE daylight
26 Jul - 12:56:59 10° WNW 13:04:17 25° SW 13:11:49 10° S daylight
26 Jul - 21:47:17 10° SSE 21:50:02 11° SE 21:52:46 10° ESE night (unlit)
26 Jul - 23:45:07 10° SSW 23:54:51 70° SE 00:04:11 10° NE visible
27 Jul - 01:52:08 10° W 01:59:40 26° NW 02:07:03 10° N visible
27 Jul - 08:25:53 10° NNE 08:28:53 12° NE 08:31:54 10° ENE daylight
27 Jul - 10:25:23 10° NNW 10:34:34 62° NE 10:44:05 10° SE daylight
27 Jul - 12:31:23 10° WNW 12:39:05 28° SW 12:47:03 10° S daylight
27 Jul - 23:20:01 10° SSW 23:29:41 62° SE 23:38:57 10° NE visible
28 Jul - 01:26:27 10° WSW 01:34:25 29° NW 01:42:12 10° NNE visible
28 Jul - 10:00:21 10° NNW 10:09:24 55° NE 10:18:44 10° SE daylight
28 Jul - 12:05:52 10° WNW 12:13:53 32° SW 12:22:13 10° S daylight
28 Jul - 22:54:55 10° SSW 23:04:31 56° SE 23:13:41 10° NE night (unlit)
29 Jul - 01:00:51 10° WSW 01:09:12 33° NW 01:17:19 10° NNE visible
29 Jul - 09:35:20 10° NNW 09:44:13 49° NE 09:53:21 10° ESE daylight
29 Jul - 11:40:24 10° WNW 11:48:42 36° SW 11:57:20 10° SSE daylight
29 Jul - 22:29:54 10° SSW 22:39:20 50° SE 22:48:23 10° ENE night (unlit)
30 Jul - 00:35:17 10° WSW 00:43:58 37° NW 00:52:23 10° NNE visible
30 Jul - 09:10:21 10° NNW 09:19:01 44° NE 09:27:56 10° ESE daylight
30 Jul - 11:15:00 10° WNW 11:23:32 40° SW 11:32:25 10° SSE daylight
30 Jul - 22:04:53 10° SSW 22:14:09 44° SE 22:23:04 10° ENE night (unlit)
31 Jul - 00:09:46 10° WSW 00:18:45 41° NW 00:27:27 10° NNE visible
31 Jul - 08:45:23 10° NNW 08:53:49 39° NE 09:02:28 10° ESE daylight
31 Jul - 10:49:38 10° WNW 10:58:22 45° SW 11:07:27 10° SSE daylight
31 Jul - 21:39:55 10° SSW 21:48:58 40° SE 21:57:40 10° ENE night (unlit)
31 Jul - 23:44:18 10° WSW 23:53:32 46° NW 00:02:28 10° NNE visible
01 Aug - 08:20:26 10° NNW 08:28:37 35° NE 08:36:58 10° ESE daylight
01 Aug - 10:24:18 10° NW 10:33:12 51° SW 10:42:27 10° SSE daylight
01 Aug - 21:15:00 10° S 21:23:47 35° SE 21:32:14 10° ENE night (unlit)
01 Aug - 23:18:52 10° WSW 23:28:20 52° NW 23:37:28 10° NNE visible
02 Aug - 07:55:32 10° NNW 08:03:23 31° NE 08:11:23 10° ESE daylight
02 Aug - 09:59:01 10° NW 10:08:02 57° SW 10:17:25 10° SSE daylight
02 Aug - 20:50:07 10° S 20:58:35 31° SE 21:06:45 10° ENE visible
02 Aug - 22:53:30 10° SW 23:03:08 58° NW 23:12:26 10° NNE visible
03 Aug - 01:06:43 10° NW 01:09:00 11° NW 01:11:16 10° NNW visible
03 Aug - 07:30:39 10° NNW 07:38:10 28° NE 07:45:46 10° E daylight
03 Aug - 09:33:47 10° NW 09:42:53 64° SW 09:52:21 10° SSE daylight
03 Aug - 20:25:18 10° S 20:33:22 28° SE 20:41:12 10° ENE visible
03 Aug - 22:28:08 10° SW 22:37:56 64° NW 22:47:23 10° NNE visible
04 Aug - 00:39:49 10° WNW 00:43:38 13° NW 00:47:24 10° NNW visible
04 Aug - 07:05:49 10° N 07:12:55 25° NE 07:20:06 10° E daylight
04 Aug - 09:08:34 10° NW 09:17:44 72° SW 09:27:14 10° SSE daylight
04 Aug - 11:19:39 10° WSW 11:22:27 11° SW 11:25:17 10° SSW daylight
04 Aug - 20:00:33 10° S 20:08:10 24° SE 20:15:34 10° E visible
04 Aug - 22:02:50 10° SW 22:12:46 72° NW 22:22:18 10° NE night (unlit)
